Location: Thompson
(55.7500°N, 97.8670°W)
Time: 18:20:56
(UTC-05:00)

Daily predictions for brighter satellites

Satellite Brightness Start Highest point End
(mag) Time Altitude Azimuth Time Altitude Azimuth Time Altitude Azimuth
Meteor 2-21 4.5 21:18:53 10° S 21:25:00 71° E 21:31:11 10° NNE
Terra 3.7 21:23:18 10° E 21:26:23 17° NE 21:29:28 10° N
Lacrosse 5 2.1 21:22:10 10° W 21:27:15 77° N 21:32:21 10° E
Cosmos 2237 Rocket 3.3 21:25:19 10° SSE 21:29:34 23° ESE 21:33:50 10° NE
Lacrosse 4 Rocket 3.7 21:26:28 10° W 21:30:07 27° NNW 21:33:53 10° NNE
Cosmos 2219 Rocket 2.7 21:25:01 10° S 21:30:13 39° ESE 21:35:26 10° NE
Cosmos 2278 Rocket 2.3 21:24:56 10° NW 21:30:40 89° WSW 21:36:22 10° SSE
Cosmos 2322 Rocket 3.3 21:25:20 10° WSW 21:30:53 50° NW 21:36:26 10° NNE
Genesis I 4.0 21:27:08 10° NW 21:31:07 50° SW 21:35:04 10° SSE
Cosmos 1666 Rocket 4.3 21:26:43 10° NNW 21:31:09 59° W 21:35:33 10° S
ATLAS CENTAUR R/B 2.8 21:29:25 10° SSE 21:31:37 15° ESE 21:33:52 10° E
USA 186 3.4 21:30:44 10° SSW 21:32:38 24° W 21:34:38 10° NW
SPOT 5 3.8 21:31:19 10° ESE 21:35:15 29° ENE 21:39:04 10° N
Cosmos 1933 Rocket 3.6 21:32:49 10° N 21:37:15 70° ENE 21:41:37 10° SSE
NOSS 3-4 (A) 3.9 21:32:30 10° NW 21:39:18 82° NE 21:46:41 10° SE
NOSS 3-4 (C) 3.9 21:32:36 10° NW 21:39:24 81° NE 21:46:47 10° SE
MetOp-A 4.3 21:34:43 10° SSE 21:40:00 64° ENE 21:45:20 10° NNW
NOSS 2-1 (E) 3.9 21:36:55 10° SSW 21:40:22 35° SE 21:44:27 10° ENE
ATLAS 5 CENTAUR R/B 3.2 21:37:10 10° WNW 21:42:12 41° NNE 21:47:53 10° E
Cosmos 407 Rocket 3.8 21:37:57 10° NNW 21:43:03 55° NE 21:48:00 10° SE
NOAA 11 4.5 21:38:33 10° S 21:44:03 74° WSW 21:49:36 10° NNW
YAOGAN 6 4.3 21:40:57 10° SSW 21:44:16 33° W 21:47:38 10° NNW
H-2A R/B 2.2 21:39:44 10° SE 21:44:39 55° ENE 21:49:30 10° N
SL-8 Rocket 4.2 21:39:52 10° SSE 21:45:55 51° E 21:51:58 10° NNE
Sich 1 4.5 21:42:04 10° NNW 21:46:05 39° W 21:50:03 10° SSW
NOSS 3-3 (A) 4.4 21:46:56 10° SSW 21:52:43 43° ESE 21:59:06 10° NE
NOSS 3-3 (C) 4.4 21:47:03 10° SSW 21:52:50 43° ESE 21:59:11 10° NE
Cosmos 1340 3.3 21:50:08 10° SSW 21:53:54 61° WNW 21:57:42 10° N
USA 267 4.5 21:50:39 10° E 21:54:39 17° SE 21:58:38 10° SSE
ERS-1 Rocket 3.1 21:50:32 10° SSE 21:55:29 62° ENE 22:00:28 10° NNW
Cosmos 1151 Rocket 3.1 21:52:58 10° S 21:57:07 55° E 22:01:20 10° NNE
Cosmos 1825 2.2 21:55:08 10° NNW 21:58:58 87° WSW 22:02:46 10° S
Cosmos 1869 Rocket 4.1 21:54:55 10° N 21:59:09 43° ENE 22:02:44 13° SE
Cosmos 676 Rocket 4.4 21:55:29 10° NNW 22:00:40 52° NE 22:05:05 14° SE
NOSS 7 (H) 4.3 22:03:59 10° SW 22:07:17 71° SE 22:10:46 10° NE
Cosmos 2322 4.2 22:03:26 10° SW 22:09:04 65° NW 22:14:47 10° NNE
Cosmos 44 3.5 22:06:12 10° SW 22:10:50 74° NW 22:15:47 10° NE
Helios 1B rocket 3.8 22:09:30 10° NE 22:12:41 21° E 22:14:22 17° ESE
Cosmos 1869 3.5 22:10:36 10° S 22:14:30 51° E 22:18:26 10° NNE
Cosmos 405 2.9 22:12:32 10° NNW 22:16:05 74° ENE 22:18:46 16° SSE
Cosmos 2098 Rocket 3.1 22:12:18 10° S 22:16:40 48° E 22:20:12 10° NNE
Cosmos 2228 Rocket 3.0 22:12:43 10° S 22:17:06 85° ESE 22:21:33 10° NNE
CARTOSAT-1 4.5 22:14:51 16° ESE 22:17:44 35° ENE 22:21:40 10° N
Cosmos 2056 Rocket 4.3 22:13:18 10° SSE 22:18:03 32° ESE 22:22:48 10° NE
SL-16 R/B 3.3 22:15:04 15° SE 22:18:13 23° ESE 22:22:32 10° NE
Cosmos 1515 Rocket 3.6 22:17:48 10° SSW 22:22:17 87° W 22:26:48 10° NNE
USA 245 2.0 22:25:45 23° SSE 22:27:10 86° W 22:29:31 10° NNW
Cosmos 1943 Rocket 3.4 22:22:31 10° NNW 22:27:27 32° NE 22:32:07 11° E
GEOS 3 Rocket 4.4 22:22:48 10° ENE 22:27:34 31° ESE 22:32:15 10° S
Helios 1A 2.9 22:26:20 16° SSE 22:29:40 87° ENE 22:33:54 10° NNW
Cosmos 44 Rocket 3.6 22:25:06 10° SW 22:29:57 74° NW 22:34:59 10° NE
Cosmos 1633 4.3 22:29:03 10° NNE 22:31:48 20° ENE 22:33:12 16° E
ARGOS 3.6 22:26:40 10° S 22:31:57 59° WSW 22:37:16 10° NNW
Cosmos 1190 Rocket 4.2 22:27:08 10° NNW 22:32:26 72° WSW 22:36:40 16° SSE
USA 234 3.3 22:27:52 14° ESE 22:33:37 81° SSW 22:40:12 10° WNW
Cosmos 1624 Rocket 4.4 22:30:26 10° S 22:35:18 42° ESE 22:40:12 10° NE
SL-08 RB Rocket 4.0 22:31:04 11° S 22:35:19 62° WSW 22:39:48 10° NNW
Meteor 1-4 Rocket 4.2 22:33:36 10° N 22:36:20 20° ENE 22:37:39 17° E
Resurs 01 Rocket 4.3 22:35:45 10° SW 22:38:45 17° W 22:41:44 10° NW
BREEZE-M DEB (TANK) 3.4 22:37:55 10° SW 22:39:15 20° SSW 22:39:15 20° SSW
Cosmos 2297 3.9 22:35:03 10° NW 22:40:43 70° WSW 22:44:55 18° SSE
CZ-2C R/B 3.7 22:39:39 20° ESE 22:42:24 37° ENE 22:46:51 10° N
Cosmos 1140 Rocket 3.5 22:37:48 10° NNW 22:43:03 82° ENE 22:46:26 22° SSE
Cosmos 1727 Rocket 4.2 22:37:35 10° NNW 22:43:46 72° W 22:49:42 11° S
Cosmos 1980 3.6 22:39:24 10° SSW 22:45:03 70° ESE 22:50:44 10° NE
Cosmos 2360 Rocket 3.9 22:40:27 10° WSW 22:45:39 37° NW 22:50:53 10° NNE
Landsat 7 3.8 22:42:32 21° SSE 22:45:44 76° ENE 22:50:32 10° NNW
Cosmos 1954 Rocket 4.0 22:41:05 10° NNW 22:46:22 87° ENE 22:49:44 23° SSE
RESURS DK-1 3.7 22:42:47 10° NNW 22:46:33 31° NE 22:49:12 16° E
Cosmos 1441 Rocket 3.4 22:49:02 27° SSE 22:50:45 49° E 22:54:24 10° NNE
Cosmos 1862 3.5 22:47:21 10° NNW 22:51:24 69° W 22:54:06 20° S
Cosmos 2369 Rocket 2.8 22:45:52 10° NNW 22:51:25 49° NE 22:55:14 20° ESE
Cosmos 2333 Rocket 2.3 22:45:50 10° SW 22:51:31 80° NW 22:57:12 10° NE
Cosmos 1455 4.3 22:49:25 10° SW 22:52:49 29° WNW 22:56:16 10° N
DMSP B5D2-2 4.2 22:50:01 10° NNE 22:55:13 58° ESE 22:59:00 19° S
COSMOS 2428 3.6 22:51:21 10° SW 22:56:59 54° NW 23:02:37 10° NNE
Cosmos 1821 Rocket 4.3 22:53:04 21° SSE 22:57:09 49° E 23:03:09 10° NNE
Meteor 2-10 Rocket 3.8 22:53:01 10° S 22:58:48 87° ESE 23:04:40 10° NNE
NOSS 2-1 (C) 3.7 22:55:24 10° WSW 22:59:13 71° NNW 23:04:00 10° NE
SeaSat 1 3.9 22:55:37 12° E 22:59:25 30° NE 23:03:42 10° NNW
IGS 5A 3.4 22:57:55 28° SSE 23:00:03 76° ENE 23:04:15 10° NNW
NOSS 2-1 (D) 3.7 22:56:22 10° WSW 23:00:12 70° NNW 23:04:59 10° NE
Spot 1 4.4 22:58:41 22° SSE 23:01:53 80° WSW 23:06:38 10° NNW
Terra 1.8 23:00:47 26° SSE 23:03:26 77° ENE 23:08:14 10° NNW
Cosmos 1437 Rocket 2.8 23:00:49 10° N 23:04:38 60° ENE 23:06:03 35° SE
Cosmos 2123 Rocket 4.2 22:58:50 10° N 23:05:08 60° ENE 23:08:50 25° SE
Meteor 1-29 3.3 23:03:23 10° NNE 23:06:40 44° E 23:07:12 40° SE
Cosmos 2218 Rocket 4.5 23:00:24 10° SSW 23:06:43 64° WNW 23:13:07 10° N
Cosmos 389 Rocket 4.2 23:07:09 10° NNE 23:09:45 20° ENE 23:10:32 18° E
ATLAS CENTAUR R/B 1.0 23:06:10 10° SW 23:09:55 83° SE 23:13:56 10° NE
Lacrosse 4 Rocket 4.3 23:07:22 10° NW 23:10:10 17° N 23:13:02 10° NE
Lacrosse 5 1.8 23:05:18 10° WNW 23:10:24 84° SSW 23:13:24 25° ESE
Cosmos 2237 Rocket 2.2 23:07:20 10° SW 23:12:59 87° WNW 23:18:41 10° NE
SPOT 5 3.3 23:10:05 19° S 23:13:11 50° W 23:17:32 10° NNW
Cosmos 2278 Rocket 4.2 23:09:53 10° NW 23:14:03 21° WSW 23:18:13 10° SSW
Cosmos 2219 Rocket 3.0 23:08:31 10° SW 23:14:04 55° NW 23:19:39 10° NNE
H-2A R/B 4.0 23:12:13 14° E 23:14:29 20° NE 23:17:49 10° N
Cosmos 1862 Rocket 4.4 23:13:55 29° ESE 23:14:52 32° E 23:18:49 10° NNE
CZ-2C R/B 3.7 23:10:55 10° NNE 23:15:25 27° E 23:16:48 24° ESE
SPOT 1/Viking Rocket 4.1 23:11:58 19° S 23:15:40 56° W 23:20:50 10° NNW
SAR-Lupe-4 3.9 23:16:36 40° ESE 23:17:32 52° ENE 23:21:03 10° N
Cosmos 405 Rocket 2.6 23:16:09 28° S 23:18:07 87° ESE 23:22:06 10° NNE
Cosmos 2098 4.1 23:18:04 53° S 23:18:41 76° E 23:22:05 10° NNE
ALOS 2 4.4 23:16:44 16° E 23:18:43 21° NE 23:21:59 10° N
Meteor 1-20 Rocket 4.2 23:16:55 10° N 23:22:23 66° ENE 23:24:59 31° SE
H-2A R/B 3.6 23:19:59 10° SSW 23:24:23 29° W 23:28:44 10° NNW
NOSS 0 Rocket 4.2 23:19:10 10° SW 23:25:21 72° NW 23:31:36 10° NE
CZ-4C R/B 3.5 23:26:51 22° ESE 23:26:51 22° ESE 23:31:00 10° ENE
ATLAS 5 CENTAUR R/B 2.3 23:21:58 10° NW 23:27:33 80° NE 23:31:12 26° ESE
NOSS 2-1 (E) 4.3 23:26:49 10° WSW 23:30:44 55° NNW 23:35:44 10° NE
YAOGAN 11 4.3 23:34:32 33° S 23:36:17 62° WSW 23:40:35 10° NNW
Cosmos 1707 Rocket 3.7 23:34:09 25° SSW 23:36:37 71° WNW 23:40:59 10° N
Cosmos 1933 3.3 23:35:53 34° SSW 23:37:35 82° WNW 23:41:42 10° N
Cosmos 1371 Rocket 4.4 23:32:50 10° SW 23:38:09 67° WNW 23:43:33 10° NNE
Cosmos 921 Rocket 4.1 23:38:59 28° E 23:38:59 28° E 23:42:32 10° NE
USA 267 3.4 23:32:38 10° ENE 23:38:54 46° SE 23:45:10 10° SW
Sich 1 Rocket 4.2 23:37:02 10° N 23:41:30 48° ENE 23:42:51 36° ESE
ASTRO F (AKARI) 4.3 23:38:18 10° NNE 23:41:51 84° ESE 23:42:22 62° S
NOSS 3-3 (A) 4.4 23:37:02 10° WSW 23:43:23 71° NNW 23:50:31 10° NE
NOSS 3-3 (C) 4.4 23:37:08 10° WSW 23:43:28 72° NNW 23:50:37 10° NE
Cosmos 1605 Rocket 4.2 23:44:27 32° SSE 23:47:13 56° E 23:53:28 10° NNE
Helios 1B rocket 2.9 23:44:14 10° N 23:48:19 59° WNW 23:50:44 23° SW
Cosmos 1733 Rocket 3.4 23:46:06 10° NNW 23:50:28 58° W 23:52:02 36° SSW
Meteor 1-11 Rocket 4.3 23:48:13 10° N 23:53:44 46° ENE 23:56:00 30° ESE
